EW7422 Weather Reports


time (UTC)temp
C
wind
direction
speed
KPH
gust
KPH
rain 1hr
cm
rain 24hr
cm
rain mn
cm
humidity
%
barometer
mb
20260504035601 7 275 0.0 3.2 0.00 0.00 0.00 73 1020.5
20260504035100 7 278 0.0 3.2 0.00 0.00 0.00 71 1020.5
20260504034600 7 278 0.0 3.2 0.00 0.00 0.00 71 1020.4
20260504034100 8 278 0.0 1.6 0.00 0.00 0.00 69 1020.4
20260504033831 8 278 0.0 1.6 0.00 0.00 0.00 68 1020.3
20260504033332 8 278 1.6 3.2 0.00 0.00 0.00 69 1020.3
20260504032604 8 278 0.0 1.6 0.00 0.00 0.00 67 1020.2
20260504032600 8 278 1.6 3.2 0.00 0.00 0.00 67 1020.3
20260504031601 8 278 0.0 1.6 0.00 0.00 0.00 66 1020.2
20260504031100 8 278 0.0 1.6 0.00 0.00 0.00 67 1020.3
20260504030833 8 278 0.0 1.6 0.00 0.00 0.00 65 1020.4
20260504030101 9 278 0.0 1.6 0.00 0.00 0.00 63 1020.4
20260504025601 9 278 0.0 1.6 0.00 0.00 0.00 64 1020.3
20260504025101 9 278 0.0 1.6 0.00 0.00 0.00 63 1020.3
20260504024602 9 278 0.0 1.6 0.00 0.00 0.00 61 1020.3
20260504024101 9 278 0.0 1.6 0.00 0.00 0.00 61 1020.4
20260504023601 9 278 0.0 1.6 0.00 0.00 0.00 63 1020.5
20260504023101 10 278 0.0 1.6 0.00 0.00 0.00 62 1020.4
20260504022605 10 278 0.0 1.6 0.00 0.00 0.00 62 1020.3
20260504022101 10 278 0.0 3.2 0.00 0.00 0.00 63 1020.3
20260504021832 10 278 1.6 3.2 0.00 0.00 0.00 59 1020.3
20260504021100 10 278 1.6 3.2 0.00 0.00 0.00 57 1020.2
20260504020601 10 278 0.0 3.2 0.00 0.00 0.00 56 1020.1
20260504015601 10 278 0.0 3.2 0.00 0.00 0.00 55 1019.9
20260504015100 10 278 0.0 3.2 0.00 0.00 0.00 55 1019.8
20260504014600 11 278 1.6 3.2 0.00 0.00 0.00 54 1019.8
20260504014101 11 278 1.6 3.2 0.00 0.00 0.00 54 1019.7
20260504013601 11 286 0.0 1.6 0.00 0.00 0.00 54 1019.7
20260504013332 11 286 0.0 3.2 0.00 0.00 0.00 56 1019.7
20260504012601 11 286 0.0 3.2 0.00 0.00 0.00 55 1019.6
20260504012102 11 286 0.0 1.6 0.00 0.00 0.00 54 1019.6
20260504011832 12 286 0.0 1.6 0.00 0.00 0.00 54 1019.5
20260504011101 12 286 0.0 1.6 0.00 0.00 0.00 51 1019.5
20260504010831 12 286 0.0 3.2 0.00 0.00 0.00 51 1019.4
20260504010101 12 286 0.0 3.2 0.00 0.00 0.00 48 1019.3
20260504005601 12 286 0.0 0.0 0.00 0.00 0.00 53 1019.3
20260504005100 12 287 0.0 0.0 0.00 0.00 0.00 52 1019.3
20260504004601 13 287 0.0 0.0 0.00 0.00 0.00 50 1019.2
20260504004110 13 287 0.0 0.0 0.00 0.00 0.00 49 1019.2
20260504003839 13 287 0.0 0.0 0.00 0.00 0.00 53 1019.2
20260504003107 13 287 0.0 0.0 0.00 0.00 0.00 50 1019.0
20260504002604 14 288 0.0 0.0 0.00 0.00 0.00 51 1019.0
20260504002106 15 288 0.0 0.0 0.00 0.00 0.00 47 1019.0
20260504002102 14 288 0.0 0.0 0.00 0.00 0.00 50 1019.0
20260504001817 15 288 0.0 0.0 0.00 0.00 0.00 45 1018.9
20260504000600 16 7 0.0 3.2 0.00 0.00 0.00 42 1018.9
20260503235602 16 299 3.2 9.7 0.00 0.00 0.00 42 1018.9
20260503235106 17 237 1.6 8.0 0.00 0.00 0.00 42 1018.9
20260503235102 17 254 1.6 9.7 0.00 0.00 0.00 41 1018.9
20260503234102 17 251 1.6 6.4 0.00 0.00 0.00 42 1018.8
20260503233601 17 265 1.6 3.2 0.00 0.00 0.00 40 1018.7
20260503233102 17 273 1.6 6.4 0.00 0.00 0.00 40 1018.7
20260503232601 18 277 3.2 11.3 0.00 0.00 0.00 40 1018.7
20260503232102 18 244 3.2 11.3 0.00 0.00 0.00 40 1018.7
20260503231601 18 261 3.2 11.3 0.00 0.00 0.00 40 1018.6
20260503231103 18 14 3.2 6.4 0.00 0.00 0.00 40 1018.5
20260503230833 18 246 3.2 12.9 0.00 0.00 0.00 37 1018.5
20260503230333 18 286 3.2 12.9 0.00 0.00 0.00 40 1018.6
20260503225601 19 340 3.2 12.9 0.00 0.00 0.00 38 1018.6
20260503225102 19 296 3.2 12.9 0.00 0.00 0.00 39 1018.6
20260503224602 19 269 3.2 12.9 0.00 0.00 0.00 38 1018.6
20260503224558 19 263 3.2 9.7 0.00 0.00 0.00 38 1018.5
20260503223102 19 235 3.2 14.5 0.00 0.00 0.00 39 1018.5
20260503222601 20 242 3.2 9.7 0.00 0.00 0.00 36 1018.4
20260503222101 20 244 4.8 12.9 0.00 0.00 0.00 38 1018.6
20260503221331 20 253 4.8 12.9 0.00 0.00 0.00 35 1018.5
20260503221325 20 243 3.2 12.9 0.00 0.00 0.00 36 1018.6
20260503220100 20 254 3.2 12.9 0.00 0.00 0.00 35 1018.6
20260503215832 20 319 3.2 8.0 0.00 0.00 0.00 36 1018.7
20260503215101 20 285 3.2 8.0 0.00 0.00 0.00 35 1018.6
20260503214832 20 263 3.2 12.9 0.00 0.00 0.00 37 1018.6
20260503214101 20 299 3.2 12.9 0.00 0.00 0.00 36 1018.7
20260503213601 20 291 4.8 12.9 0.00 0.00 0.00 35 1018.8
20260503213101 20 246 4.8 12.9 0.00 0.00 0.00 35 1018.8
20260503212600 20 280 4.8 11.3 0.00 0.00 0.00 33 1018.8
20260503212100 20 357 3.2 11.3 0.00 0.00 0.00 32 1018.9
20260503211602 21 257 3.2 11.3 0.00 0.00 0.00 34 1018.9
20260503211102 20 259 4.8 14.5 0.00 0.00 0.00 35 1019.0
20260503210831 20 249 6.4 17.7 0.00 0.00 0.00 34 1019.0
20260503210101 20 246 6.4 17.7 0.00 0.00 0.00 32 1019.0
20260503205605 21 61 3.2 9.7 0.00 0.00 0.00 34 1019.1
20260503205601 20 242 4.8 11.3 0.00 0.00 0.00 31 1019.1
20260503204601 20 259 3.2 6.4 0.00 0.00 0.00 35 1019.1
20260503203602 21 260 3.2 12.9 0.00 0.00 0.00 33 1019.2
20260503203102 21 275 3.2 12.9 0.00 0.00 0.00 34 1019.3
20260503202601 20 335 1.6 6.4 0.00 0.00 0.00 32 1019.3
20260503202101 21 313 3.2 6.4 0.00 0.00 0.00 33 1019.4
20260503201542 20 251 1.6 6.4 0.00 0.00 0.00 33 1019.4
20260503201045 20 254 4.8 9.7 0.00 0.00 0.00 35 1019.7
20260503201041 20 295 3.2 9.7 0.00 0.00 0.00 34 1019.5
20260503200301 19 254 4.8 11.3 0.00 0.00 0.00 32 1019.8
20260503195530 19 240 4.8 11.3 0.00 0.00 0.00 32 1020.0
20260503195304 19 246 3.2 11.3 0.00 0.00 0.00 31 1020.0
20260503194529 19 282 4.8 12.9 0.00 0.00 0.00 31 1020.1
20260503194030 18 13 4.8 12.9 0.00 0.00 0.00 34 1020.2
20260503193529 19 239 4.8 12.9 0.00 0.00 0.00 34 1020.2
20260503193030 19 219 3.2 12.9 0.00 0.00 0.00 34 1020.3
20260503192801 18 262 3.2 9.7 0.00 0.00 0.00 33 1020.3
20260503192030 18 107 3.2 11.3 0.00 0.00 0.00 30 1020.5
20260503191528 19 290 4.8 11.3 0.00 0.00 0.00 34 1020.6
20260503191032 19 268 4.8 11.3 0.00 0.00 0.00 34 1020.7
20260503190529 18 329 4.8 12.9 0.00 0.00 0.00 38 1020.6
20260503190028 17 250 6.4 12.9 0.00 0.00 0.00 39 1020.7
20260503185529 18 277 6.4 14.5 0.00 0.00 0.00 36 1020.7
20260503185258 18 214 3.2 14.5 0.00 0.00 0.00 37 1020.8
20260503184527 18 230 3.2 8.0 0.00 0.00 0.00 36 1020.8
20260503184029 18 205 3.2 9.7 0.00 0.00 0.00 38 1020.9
20260503183743 17 180 4.8 16.1 0.00 0.00 0.00 43 1020.9
20260503183239 17 94 6.4 16.1 0.00 0.00 0.00 36 1021.1
20260503182509 17 244 6.4 12.9 0.00 0.00 0.00 39 1021.0
20260503182013 18 192 3.2 12.9 0.00 0.00 0.00 39 1021.1
20260503182009 17 256 6.4 12.9 0.00 0.00 0.00 39 1021.1
20260503181009 18 231 3.2 9.7 0.00 0.00 0.00 39 1021.2
20260503180509 18 225 3.2 11.3 0.00 0.00 0.00 41 1021.2
20260503180003 17 262 4.8 16.1 0.00 0.00 0.00 42 1021.2
20260503175503 17 289 3.2 16.1 0.00 0.00 0.00 39 1021.4
20260503175004 17 300 3.2 9.7 0.00 0.00 0.00 37 1021.4
20260503174501 16 192 3.2 9.7 0.00 0.00 0.00 39 1021.5
20260503174007 16 226 3.2 6.4 0.00 0.00 0.00 37 1021.5
20260503173501 16 311 3.2 6.4 0.00 0.00 0.00 37 1021.7
20260503173003 16 259 3.2 12.9 0.00 0.00 0.00 38 1021.7
20260503172502 16 240 4.8 12.9 0.00 0.00 0.00 37 1021.8
20260503172004 16 7 3.2 11.3 0.00 0.00 0.00 39 1021.9
20260503171733 16 281 4.8 11.3 0.00 0.00 0.00 37 1021.9
20260503171234 15 242 4.8 14.5 0.00 0.00 0.00 37 1022.1
20260503170502 15 229 3.2 14.5 0.00 0.00 0.00 39 1022.1
20260503151000 11 256 3.2 8.0 0.00 0.00 0.00 56 1023.4
20260503150500 11 245 4.8 12.9 0.00 0.00 0.00 58 1023.4
20260503131232 5 195 0.0 0.0 0.00 0.00 0.00 90 1023.3
20260503130501 5 195 0.0 0.0 0.00 0.00 0.00 92 1023.3
20260503110501 1 194 0.0 0.0 0.00 0.00 0.00 95 1021.7
20260503110232 1 194 0.0 0.0 0.00 0.00 0.00 95 1021.5
20260503100240 2 194 0.0 0.0 0.00 0.00 0.00 93 1021.0
20260503090501 2 194 0.0 0.0 0.00 0.00 0.00 91 1020.3
20260503081500 3 194 0.0 0.0 0.00 0.00 0.00 90 1020.0
20260503081003 3 194 0.0 0.0 0.00 0.00 0.00 90 1019.8
20260503080502 3 194 0.0 0.0 0.00 0.00 0.00 90 1019.7
20260503072501 3 194 0.0 0.0 0.00 0.00 0.00 89 1019.4
20260503072003 3 194 0.0 0.0 0.00 0.00 0.00 89 1019.4
20260503071501 3 194 0.0 1.6 0.00 0.00 0.00 88 1019.4
20260503071007 3 194 0.0 1.6 0.00 0.00 0.00 88 1019.3
20260503070732 3 194 0.0 1.6 0.00 0.00 0.00 88 1019.3
20260503055004 6 191 0.0 0.0 0.00 0.00 0.00 78 1018.9
20260503054501 6 191 0.0 0.0 0.00 0.00 0.00 78 1019.0
20260503054244 6 191 0.0 1.6 0.00 0.00 0.00 78 1019.0
20260503053731 6 191 0.0 3.2 0.00 0.00 0.00 79 1019.0
20260503053001 6 191 0.0 3.2 0.00 0.00 0.00 78 1019.0
20260503052502 6 191 0.0 1.6 0.00 0.00 0.00 78 1019.1
20260503052233 6 191 0.0 1.6 0.00 0.00 0.00 79 1019.1
20260503051501 6 191 0.0 0.0 0.00 0.00 0.00 80 1019.3
20260503051001 6 191 0.0 3.2 0.00 0.00 0.00 81 1019.3
20260503050502 6 191 0.0 3.2 0.00 0.00 0.00 81 1019.3
20260503050001 6 191 0.0 1.6 0.00 0.00 0.00 82 1019.3
20260503045502 6 191 0.0 0.0 0.00 0.00 0.00 80 1019.2
20260503045002 6 191 0.0 0.0 0.00 0.00 0.00 80 1019.1
20260503044500 6 191 0.0 0.0 0.00 0.00 0.00 80 1019.1
20260503044002 6 191 0.0 0.0 0.00 0.00 0.00 79 1019.0
20260503043505 6 191 0.0 0.0 0.00 0.00 0.00 79 1019.0
20260503043006 6 191 0.0 1.6 0.00 0.00 0.00 78 1019.0
20260503042504 6 191 0.0 3.2 0.00 0.00 0.00 78 1019.0
20260503042002 6 191 1.6 3.2 0.00 0.00 0.00 77 1018.9
20260503041504 6 191 1.6 3.2 0.00 0.00 0.00 76 1018.9
20260503041001 6 190 1.6 3.2 0.00 0.00 0.00 75 1018.8
20260503040504 7 190 1.6 3.2 0.00 0.00 0.00 76 1018.8
20260503040001 7 190 0.0 1.6 0.00 0.00 0.00 73 1018.6